Voltar ao catálogo

NOAA 16 DEB

AtivoSSO
NORAD 42368·DEBRIS·🇺🇸 United States

Lançado Sep 21, 2000 de Vandenberg Space Force Base

Loading…

Próximas Passagens (próximas 24 horas)

TLE

AtualizadoSource: Space-Track

Época: Sep 14, 2026, 11:09 UTC

1 42368U 00055RL  26257.46489338  .00002517  00000-0  99383-3 0  9990
2 42368  98.7161 339.5051 0012570 158.7878 201.3827 14.29900004540014

Acompanhe NOAA 16 DEB em tempo real com AllMySat

Download on the App Store